Temp
61 61 60 61 60 60 60 60 60 61 61 61 61 61 61 61 61 57 63 76 73 75 74 76 74 72 70 66 67 64 57 53 56 60 66 72 69 75 79 76 77 77 77 77 79
61 61 60 60 60 59 60 60 60 60 60 61 61 61 61 61 56 62 75 75 74 76 72 71 70 72 66 64 66 62 54 57 65 64 63 69 71 71 75 74 74 77 79 80 78
61 60 60 60 60 59 59 59 59 60 60 61 61 61 61 59 59 73 78 75 77 74 72 72 70 67 59 61 62 59 60 65 71 71 69 69 71 72 71 67 71 71 75 77 76
60 60 60 60 59 59 59 59 60 60 61 60 60 61 61 56 57 73 76 76 76 73 72 70 67 60 57 58 63 58 67 68 70 71 72 69 75 72 72 65 75 73 75 74 72
59 59 59 59 59 59 59 59 59 59 60 60 60 61 56 61 69 76 77 76 74 73 71 68 63 61 57 60 63 59 66 69 70 69 68 74 69 71 66 70 72 71 71 70 69
59 59 59 59 59 59 58 58 58 59 59 61 61 61 59 59 79 77 77 75 74 72 73 70 67 69 62 61 62 66 67 66 68 66 67 68 68 71 67 70 68 67 65 65 66
59 59 58 58 59 59 59 58 58 59 60 63 63 65 62 70 80 75 75 72 76 78 73 75 73 69 66 65 66 66 60 65 66 66 65 70 67 60 68 68 65 64 64 64 65
59 58 58 59 59 59 59 59 58 59 61 63 64 61 64 79 75 75 72 78 80 79 78 80 77 70 65 66 67 62 58 55 63 66 67 71 53 62 67 66 63 63 63 62 62
59 58 58 59 59 59 58 58 59 61 62 64 60 60 67 79 78 82 79 79 80 80 78 89 75 65 67 59 56 56 51 52 63 67 68 67 52 63 68 65 60 60 60 61 60
59 58 58 59 59 58 57 59 61 61 62 68 71 63 72 75 80 84 81 81 78 76 75 73 63 59 56 56 49 52 52 53 54 64 66 59 55 61 65 62 59 58 57 57 58
59 58 58 59 59 57 57 60 66 64 62 67 70 72 76 83 83 79 82 79 76 72 60 64 59 54 59 61 61 59 57 56 61 67 63 57 55 57 59 58 55 55 55 56 56
58 59 59 58 58 57 55 66 67 68 62 74 72 74 80 79 73 78 82 71 68 60 62 60 54 65 65 65 63 61 57 55 61 66 64 54 52 55 57 55 55 54 53 54 54
57 58 58 59 57 59 63 69 72 68 59 69 74 74 75 78 74 75 80 72 66 59 60 57 63 70 68 62 62 56 56 54 55 61 61 56 51 53 55 56 56 55 54 53 52
57 57 57 56 64 62 69 74 69 70 51 62 68 76 77 76 71 82 81 75 65 59 61 58 66 67 63 63 61 52 61 62 59 55 50 57 44 47 51 51 52 51 50 51 52
57 57 57 56 56 64 73 68 67 69 41 67 70 79 74 73 73 74 81 73 65 66 64 60 61 61 60 61 65 59 63 58 57 50 47 48 44 41 50 48 49 51 52 52 52
57 57 56 57 52 63 68 67 69 52 43 64 73 70 68 69 72 74 73 75 71 64 63 62 68 66 65 65 64 65 58 53 47 45 39 45 45 44 45 49 50 53 54 55 54
56 57 54 61 65 65 67 65 50 43 65 63 66 69 65 65 68 70 67 60 57 52 51 60 61 66 69 60 62 58 49 39 40 38 39 46 44 47 50 54 55 54 54 54 55
54 54 55 62 59 66 64 57 41 57 60 69 68 66 63 66 65 66 62 58 59 58 51 50 49 60 66 59 55 51 49 41 35 34 40 48 41 47 55 57 57 57 56 55 54
52 56 56 62 61 63 58 44 48 56 66 65 65 60 59 65 65 63 60 57 59 58 53 49 51 65 67 65 62 51 47 49 42 38 37 41 45 53 55 55 56 55 55 54 53
48 51 56 66 67 62 52 47 53 64 68 66 55 59 53 57 58 57 57 60 61 62 57 54 47 58 64 65 61 55 57 45 39 34 32 38 40 42 48 52 54 54 54 54 54
51 54 64 66 66 57 47 49 59 68 68 63 58 56 57 56 56 54 55 60 64 61 59 53 49 52 57 52 51 52 47 44 43 39 34 31 38 51 53 54 53 55 57 56 54
47 49 64 67 56 47 48 56 61 67 70 68 63 61 57 57 55 55 56 59 65 63 55 51 46 42 48 57 58 55 48 45 37 38 37 35 38 54 54 56 56 57 59 58 56
44 46 60 64 48 48 53 61 65 65 65 63 60 61 59 55 51 55 57 63 63 60 56 53 43 37 43 49 54 50 52 48 42 39 37 32 37 56 56 56 56 56 56 59 55
44 44 51 54 51 52 51 56 58 67 65 64 61 61 56 53 54 52 55 61 63 60 60 55 42 42 37 42 46 45 50 49 44 35 38 39 44 52 52 53 53 55 55 54 55
43 45 48 46 50 48 49 54 57 58 62 61 56 57 54 47 49 48 54 56 59 59 53 50 42 44 46 50 50 49 50 49 45 45 41 45 43 47 47 48 49 51 54 55 54
43 43 48 47 50 48 49 53 57 59 57 55 54 56 55 48 49 48 51 49 51 51 47 46 40 43 43 51 50 47 50 50 50 49 45 47 42 46 50 50 52 52 54 53 54
47 48 48 47 47 47 49 54 57 59 59 61 57 54 52 54 56 55 52 52 52 50 46 46 41 38 36 46 46 39 46 49 47 47 47 41 45 47 47 50 49 50 53 53 53
MSLP
1017.30 1016.94 1016.69 1016.47 1016.34 1015.92 1015.76 1015.44 1015.30 1015.02 1014.76 1014.52 1014.20 1013.86 1013.70 1013.53 1012.98 1012.86 1011.56 1009.38 1009.26 1009.20 1009.35 1009.19 1009.07 1009.22 1009.29 1009.59 1009.52 1009.92 1010.83 1010.91 1009.88 1009.11 1008.61 1007.46 1007.36 1007.42 1007.41 1007.51 1007.73 1007.98 1008.03 1008.79 1010.33
1017.29 1016.89 1016.62 1016.28 1016.09 1015.79 1015.57 1015.36 1015.19 1014.91 1014.61 1014.33 1013.99 1013.68 1013.59 1013.48 1013.01 1011.66 1008.96 1008.77 1008.96 1009.09 1009.27 1009.29 1009.25 1009.27 1009.52 1009.61 1009.59 1009.93 1010.61 1009.93 1009.12 1008.23 1008.15 1007.62 1007.50 1007.72 1007.99 1008.27 1008.33 1008.52 1009.30 1010.25 1011.38
1017.06 1016.72 1016.58 1016.15 1015.82 1015.60 1015.44 1015.37 1015.08 1014.73 1014.42 1014.07 1013.83 1013.55 1013.53 1013.50 1012.61 1009.61 1008.20 1008.70 1008.89 1009.08 1009.30 1009.29 1009.26 1009.36 1009.48 1009.39 1009.37 1009.58 1009.73 1008.96 1008.00 1007.88 1007.51 1007.38 1007.65 1008.04 1008.44 1009.04 1009.63 1010.05 1010.44 1011.07 1011.97
1017.13 1017.00 1016.33 1015.89 1015.69 1015.46 1015.30 1015.27 1014.96 1014.50 1014.18 1013.89 1013.67 1013.54 1013.44 1013.40 1011.36 1008.59 1008.32 1008.65 1008.97 1009.30 1009.41 1009.29 1009.21 1009.29 1009.40 1009.39 1009.18 1009.25 1008.73 1008.10 1007.34 1007.16 1007.38 1007.40 1007.71 1008.44 1009.87 1011.17 1010.54 1010.91 1011.11 1011.44 1012.30
1017.26 1016.54 1015.96 1015.78 1015.58 1015.29 1015.14 1015.03 1014.73 1014.29 1013.99 1013.71 1013.59 1013.54 1013.29 1012.28 1009.73 1008.19 1008.46 1008.84 1009.08 1009.29 1009.25 1009.15 1009.07 1009.15 1009.25 1009.23 1009.07 1009.05 1008.38 1007.93 1007.24 1007.04 1006.84 1007.67 1008.22 1009.46 1011.50 1011.65 1011.61 1012.02 1012.39 1013.15 1013.23
1016.95 1016.47 1015.86 1015.78 1015.37 1015.16 1014.91 1014.73 1014.44 1014.10 1013.84 1013.61 1013.53 1013.55 1012.87 1010.71 1007.96 1008.19 1008.47 1008.88 1008.99 1009.11 1009.00 1008.97 1008.78 1008.77 1008.98 1008.94 1008.91 1008.69 1008.37 1008.08 1007.82 1007.26 1007.14 1007.65 1008.88 1009.64 1012.71 1012.44 1012.87 1013.07 1014.10 1014.45 1014.40
1016.93 1016.37 1015.92 1015.75 1015.35 1015.00 1014.65 1014.39 1014.05 1013.83 1013.67 1013.55 1013.49 1013.36 1012.08 1009.30 1008.14 1008.38 1008.61 1008.65 1008.56 1008.67 1008.62 1008.46 1008.33 1008.60 1008.71 1008.75 1008.74 1008.74 1008.75 1008.44 1007.86 1007.62 1007.69 1008.06 1009.99 1011.80 1012.80 1012.66 1014.22 1014.66 1015.18 1015.46 1015.41
1016.90 1016.38 1016.13 1015.82 1015.24 1014.65 1014.32 1013.92 1013.65 1013.65 1013.55 1013.46 1013.48 1013.02 1010.87 1008.40 1008.29 1008.55 1008.69 1008.33 1008.17 1008.32 1008.37 1007.86 1008.03 1008.43 1008.84 1009.02 1009.22 1009.55 1009.46 1009.57 1008.51 1008.15 1008.32 1008.75 1011.83 1013.38 1013.48 1012.76 1014.83 1015.66 1016.30 1016.75 1016.71
1017.31 1016.71 1016.19 1015.60 1014.84 1014.18 1013.73 1013.36 1013.26 1013.30 1013.40 1013.45 1013.48 1012.47 1009.96 1008.29 1008.29 1007.87 1008.21 1008.25 1007.93 1007.97 1007.96 1007.82 1008.13 1009.27 1009.50 1010.14 1010.62 1010.82 1010.52 1010.10 1009.22 1008.68 1008.91 1009.92 1013.34 1014.41 1014.67 1014.44 1015.85 1016.68 1017.08 1017.02 1017.06
1017.18 1016.58 1015.76 1015.14 1014.37 1013.79 1013.31 1012.88 1012.91 1013.13 1013.40 1013.36 1012.70 1012.03 1009.44 1008.34 1007.55 1007.51 1007.67 1007.93 1008.02 1008.14 1008.49 1008.68 1009.66 1010.16 1010.84 1010.97 1011.52 1011.18 1010.93 1010.50 1010.30 1009.89 1010.33 1011.76 1014.41 1015.39 1015.84 1016.04 1017.06 1017.79 1018.21 1018.16 1017.96
1017.05 1016.34 1015.61 1014.84 1014.07 1013.43 1012.98 1013.07 1013.38 1013.02 1012.74 1012.06 1011.19 1010.46 1009.05 1007.88 1007.24 1007.38 1007.45 1007.77 1008.10 1008.73 1009.39 1009.78 1010.54 1010.69 1010.67 1010.62 1010.58 1010.94 1010.93 1010.87 1010.53 1010.33 1011.21 1013.22 1015.44 1016.71 1017.35 1017.56 1018.07 1018.74 1019.07 1019.15 1018.95
1017.13 1016.36 1015.55 1014.54 1013.92 1013.23 1013.20 1013.28 1012.96 1012.69 1011.76 1010.18 1009.89 1009.52 1008.37 1007.93 1007.74 1007.51 1007.47 1008.11 1008.57 1009.26 1009.80 1010.37 1010.40 1009.78 1009.95 1010.45 1010.72 1010.82 1011.02 1011.39 1011.15 1011.23 1012.14 1014.75 1016.68 1017.81 1018.46 1018.91 1019.17 1019.56 1019.98 1020.05 1020.08
1017.29 1016.66 1015.54 1014.22 1013.75 1013.48 1013.39 1012.48 1011.89 1011.85 1011.85 1009.67 1008.90 1008.28 1007.71 1007.82 1007.71 1007.46 1007.66 1008.04 1008.65 1009.33 1009.71 1010.14 1009.54 1009.27 1009.78 1010.45 1010.72 1011.32 1011.43 1011.72 1012.00 1012.25 1012.98 1014.49 1017.15 1018.40 1019.56 1019.91 1020.41 1020.69 1020.88 1021.12 1021.34
1017.47 1016.82 1016.09 1014.77 1013.92 1014.04 1013.03 1011.89 1011.64 1011.49 1011.90 1009.64 1008.27 1007.12 1007.29 1007.56 1007.50 1007.03 1007.39 1007.90 1008.58 1009.16 1009.65 1009.75 1009.16 1009.29 1009.67 1010.23 1010.80 1011.44 1011.65 1012.04 1012.66 1013.40 1014.24 1014.92 1017.48 1018.78 1019.75 1020.72 1021.28 1021.47 1021.61 1021.72 1021.64
1017.45 1016.77 1016.29 1016.09 1015.46 1014.31 1012.74 1011.86 1011.40 1011.51 1011.62 1008.72 1007.52 1006.39 1006.89 1007.58 1007.42 1007.10 1007.01 1007.63 1008.43 1009.02 1009.66 1009.78 1009.48 1009.59 1009.92 1010.30 1010.71 1011.45 1011.93 1012.81 1013.45 1014.58 1015.40 1016.21 1017.56 1018.83 1019.64 1020.47 1020.85 1021.16 1021.46 1021.90 1021.84
1017.24 1016.51 1016.32 1015.90 1015.51 1013.33 1012.45 1012.00 1011.84 1012.50 1010.53 1008.25 1007.16 1006.96 1007.52 1007.49 1007.42 1007.40 1007.52 1007.70 1008.44 1009.21 1009.86 1009.96 1009.55 1009.75 1009.97 1010.52 1010.87 1011.51 1012.52 1013.80 1015.02 1015.85 1016.89 1016.69 1017.46 1018.19 1018.93 1018.91 1020.04 1020.64 1021.05 1021.50 1021.83
1016.99 1015.96 1016.09 1015.37 1014.03 1012.78 1012.33 1012.93 1013.43 1012.65 1009.83 1008.49 1007.62 1007.40 1007.56 1007.93 1007.97 1007.96 1008.24 1008.72 1009.39 1010.27 1010.86 1010.71 1010.61 1010.24 1010.21 1010.91 1011.47 1012.31 1013.97 1015.63 1016.75 1017.38 1017.46 1016.92 1017.37 1017.05 1017.35 1017.78 1018.47 1019.17 1019.74 1020.21 1020.47
1016.70 1015.46 1014.63 1013.58 1013.02 1012.84 1013.12 1013.87 1013.81 1011.65 1010.05 1008.46 1007.85 1007.78 1008.09 1008.09 1008.37 1008.58 1009.04 1009.70 1010.01 1010.49 1011.71 1011.83 1011.61 1011.01 1010.74 1011.35 1012.20 1013.42 1014.75 1016.42 1017.69 1018.75 1018.07 1017.32 1017.37 1016.93 1017.00 1017.36 1017.81 1018.47 1019.11 1019.66 1019.99
1016.40 1014.86 1014.37 1012.56 1012.55 1013.02 1014.01 1014.35 1013.20 1011.66 1010.12 1009.02 1008.16 1008.24 1008.42 1008.29 1008.65 1008.98 1009.56 1010.23 1010.58 1010.85 1011.69 1012.44 1012.35 1011.68 1011.40 1011.57 1012.31 1014.06 1015.25 1016.37 1017.73 1019.04 1019.21 1017.98 1017.68 1017.25 1017.33 1017.73 1018.20 1018.66 1019.09 1019.31 1019.54
1017.67 1016.21 1014.04 1012.21 1012.25 1012.99 1014.43 1014.29 1012.82 1011.18 1009.98 1009.15 1008.92 1008.79 1009.01 1009.07 1009.19 1009.50 1010.07 1010.67 1010.96 1011.23 1011.56 1012.82 1013.29 1013.07 1012.43 1012.31 1013.17 1013.91 1015.30 1016.84 1018.44 1019.69 1019.90 1018.65 1018.05 1017.43 1017.47 1017.59 1018.03 1018.43 1018.54 1018.63 1019.07
1017.93 1016.42 1013.05 1012.06 1012.44 1013.71 1014.62 1013.88 1012.26 1010.57 1009.90 1009.22 1009.12 1009.21 1009.48 1009.62 1009.83 1010.23 1010.69 1010.99 1011.05 1011.83 1011.98 1013.17 1013.95 1014.52 1013.97 1014.01 1014.41 1014.98 1015.85 1017.32 1018.56 1019.59 1019.99 1019.45 1017.99 1016.26 1016.26 1016.63 1017.13 1017.44 1017.47 1017.79 1018.21
1018.73 1017.05 1012.74 1012.14 1013.37 1014.33 1014.31 1013.01 1011.61 1010.44 1009.63 1009.19 1009.03 1009.30 1009.74 1010.11 1010.57 1010.91 1011.13 1011.13 1011.28 1011.77 1013.13 1014.23 1015.31 1015.82 1015.54 1014.99 1014.93 1015.28 1016.14 1017.36 1019.03 1019.86 1019.97 1019.51 1017.53 1015.87 1015.71 1015.93 1016.39 1016.68 1016.93 1017.12 1017.67
1019.63 1017.39 1013.32 1012.87 1013.78 1014.33 1013.57 1012.60 1011.45 1010.36 1009.74 1009.48 1009.62 1009.85 1010.19 1010.71 1011.27 1011.45 1011.62 1011.73 1011.88 1012.46 1013.35 1014.41 1016.37 1016.98 1016.54 1016.18 1015.70 1016.03 1016.63 1017.48 1018.67 1019.31 1019.57 1019.58 1017.64 1015.88 1015.68 1015.97 1016.16 1016.58 1016.91 1016.99 1017.44
1020.32 1018.39 1015.37 1014.17 1013.96 1013.74 1013.39 1012.52 1011.31 1009.77 1009.41 1009.62 1010.04 1010.29 1010.90 1011.50 1011.65 1012.24 1012.43 1012.66 1012.79 1013.26 1013.87 1014.62 1016.81 1017.31 1017.34 1017.03 1016.95 1016.98 1017.11 1017.53 1018.44 1019.40 1019.28 1018.79 1017.70 1016.61 1016.33 1016.33 1016.22 1016.46 1016.57 1016.61 1017.11
1020.43 1018.65 1016.80 1015.54 1014.69 1014.10 1013.43 1012.22 1011.28 1010.21 1009.83 1010.01 1010.76 1011.16 1011.59 1012.42 1012.73 1013.12 1013.20 1013.54 1013.84 1014.34 1014.89 1015.72 1017.28 1017.55 1017.45 1017.25 1017.16 1017.21 1017.25 1017.46 1018.20 1018.38 1018.73 1018.10 1017.96 1017.34 1017.02 1016.77 1016.84 1016.89 1016.98 1017.18 1017.51
1020.11 1018.89 1017.02 1016.02 1014.85 1014.07 1013.15 1012.03 1011.29 1010.75 1010.60 1010.79 1011.44 1011.83 1012.06 1012.99 1013.28 1013.70 1013.81 1014.18 1014.46 1015.18 1015.82 1016.68 1017.69 1017.86 1018.01 1017.53 1017.39 1017.33 1017.13 1017.11 1017.11 1017.38 1017.60 1017.70 1017.89 1017.77 1017.67 1017.37 1017.52 1017.67 1017.68 1017.89 1018.03
1019.03 1018.28 1017.74 1016.03 1015.13 1014.17 1012.98 1011.94 1011.32 1011.02 1011.16 1010.98 1011.63 1012.22 1012.84 1013.20 1013.42 1013.72 1013.99 1014.30 1014.54 1015.39 1016.45 1017.13 1018.11 1019.08 1019.06 1018.33 1017.99 1017.66 1016.71 1016.72 1016.74 1016.78 1017.01 1017.61 1017.75 1018.04 1018.35 1018.19 1018.30 1018.45 1018.43 1018.49 1018.55
Wind_Speed
17 16 16 15 15 15 15 15 15 14 14 15 13 11 10 11 11 2 5 9 4 2 1 5 1 1 2 2 0 4 6 3 4 3 5 6 5 4 3 5 2 3 5 8 18
17 16 16 15 15 15 16 16 15 14 14 14 13 10 9 9 3 5 11 6 7 2 1 2 4 6 3 0 2 6 4 4 4 3 3 1 5 2 3 1 4 7 16 18 13
19 17 16 15 15 15 15 16 15 14 13 13 11 9 8 6 2 6 4 7 5 2 1 1 2 2 2 1 0 2 4 5 5 5 4 3 3 2 6 3 7 9 17 15 11
19 17 16 16 15 15 15 15 14 13 12 12 10 8 6 1 2 2 7 8 3 3 1 1 2 2 3 2 1 1 4 5 3 2 4 3 5 2 13 2 13 12 13 17 14
18 19 18 16 15 14 14 14 13 12 11 11 7 6 2 2 7 3 8 5 4 4 3 1 1 3 1 1 2 2 3 5 1 4 3 8 2 7 9 13 16 17 18 13 10
19 19 19 17 15 14 13 12 11 9 9 8 4 4 2 1 2 7 8 5 2 4 3 4 3 5 1 1 3 3 3 1 4 2 2 3 3 7 5 15 17 18 14 12 13
19 19 19 18 15 13 12 11 9 9 8 6 4 3 1 7 3 5 5 3 3 4 2 4 4 2 2 5 3 1 1 5 3 2 2 4 8 4 9 20 16 15 12 12 12
21 19 18 17 15 14 12 11 9 8 7 6 5 3 5 3 4 4 2 6 6 6 4 5 5 3 2 2 8 5 6 5 5 2 2 8 1 3 4 21 13 13 11 10 11
20 19 18 18 16 16 14 11 9 4 5 3 3 1 7 4 2 6 6 4 3 3 2 2 5 3 6 5 6 7 1 2 9 2 2 6 5 6 4 16 14 11 10 10 10
21 21 20 20 18 16 17 3 7 2 2 5 5 3 3 4 3 4 6 4 3 2 6 7 6 4 4 6 3 3 3 3 3 6 7 15 8 6 6 14 14 11 9 9 11
24 23 22 22 21 16 6 2 6 5 2 6 6 4 7 6 1 1 0 2 2 7 1 4 6 2 6 7 3 3 2 3 5 7 8 8 10 7 6 10 11 10 8 8 10
25 25 25 25 22 10 0 4 2 1 9 7 7 6 7 1 3 4 3 3 3 1 1 7 2 7 3 4 6 5 4 4 4 6 9 9 9 8 7 4 6 8 6 6 5
25 25 27 28 22 2 2 4 5 2 2 10 5 5 5 7 6 5 7 3 3 1 4 6 5 1 4 3 8 4 6 2 2 4 6 7 4 5 5 7 7 7 4 3 5
23 23 23 33 3 5 6 6 7 3 5 8 4 6 4 5 3 6 7 4 2 0 5 3 2 2 4 4 5 3 3 4 2 5 2 4 4 3 4 4 4 5 5 5 6
23 22 19 10 4 3 6 9 5 6 3 2 4 1 4 8 4 4 4 3 4 1 5 4 1 3 3 2 4 5 3 2 2 4 4 3 5 1 5 6 5 5 7 7 7
25 22 18 2 1 7 8 7 6 7 7 2 7 5 6 3 2 3 2 4 1 3 3 2 4 3 5 3 2 3 3 6 5 4 2 4 6 5 8 8 6 5 8 9 9
27 28 11 2 5 3 4 6 6 3 5 3 6 5 5 5 4 5 4 2 4 4 4 5 4 5 4 4 6 8 7 5 6 6 6 2 2 8 2 10 11 12 9 8 6
28 27 5 6 2 4 4 6 2 5 6 5 2 3 6 6 6 5 4 2 2 5 3 4 4 3 1 2 6 4 6 6 4 3 6 3 3 5 4 4 3 5 5 6 7
26 5 4 5 6 3 7 3 8 5 4 6 4 5 3 4 6 4 8 5 1 3 7 5 1 5 6 2 4 3 1 3 6 2 2 3 1 4 2 1 3 5 6 9 9
5 5 5 5 6 6 6 5 5 5 5 3 1 2 3 3 4 6 4 0 3 1 3 5 4 3 4 5 6 3 5 3 4 3 5 4 3 5 7 10 7 8 11 11 7
3 5 5 5 3 6 4 7 7 7 5 3 3 2 1 2 3 2 1 2 2 2 4 4 5 4 2 2 3 4 2 6 5 5 5 2 7 6 14 14 15 14 14 11 10
3 3 3 2 3 1 3 6 6 6 5 6 3 2 2 1 3 2 3 3 3 3 4 2 6 2 3 5 5 4 3 4 6 4 2 3 8 4 7 11 12 14 13 11 7
3 5 6 5 3 3 5 6 5 7 6 3 2 1 1 3 5 2 2 3 2 4 8 6 2 3 7 7 6 5 3 4 4 3 5 6 8 2 4 5 10 9 6 8 5
2 4 6 4 0 6 4 6 5 3 3 2 4 4 4 3 5 4 2 5 4 4 9 9 4 7 8 5 3 2 4 2 4 2 3 6 7 9 6 6 2 4 6 6 7
2 6 4 4 2 1 3 3 4 3 1 3 5 3 4 3 3 3 1 2 7 4 4 6 5 4 4 4 3 3 5 5 6 6 6 6 5 4 5 4 4 4 6 7 4
2 2 3 4 3 2 4 6 7 2 2 1 7 2 6 6 4 6 4 3 5 1 2 2 2 2 1 3 0 4 8 10 12 7 6 6 2 2 4 4 8 6 6 6 5
3 3 2 4 3 2 5 3 4 5 4 5 13 7 6 7 6 5 3 3 4 8 4 4 7 4 4 1 4 7 6 6 1 4 4 5 6 1 3 6 4 5 5 5 3
Wind_Direction
350 345 340 334 329 331 325 329 323 322 316 309 304 307 314 317 309 182 247 217 158 190 210 292 309 20 76 19 321 119 57 353 337 7 299 334 68 21 341 83 52 305 108 130 133
352 346 336 331 329 329 327 325 320 319 313 305 302 307 315 327 304 256 249 224 215 217 278 5 8 9 24 316 345 87 93 236 190 252 194 81 65 55 82 203 355 73 68 101 118
356 349 335 334 330 329 324 319 314 315 311 303 302 306 309 327 296 250 250 186 197 170 339 52 37 102 48 316 150 154 182 212 269 197 242 96 65 85 117 250 16 100 115 114 114
355 345 344 340 331 325 318 311 307 310 309 303 300 299 307 270 134 274 145 159 154 94 303 16 6 66 86 352 276 308 236 206 259 215 143 94 127 63 46 72 83 60 101 104 101
351 353 353 343 329 322 310 304 303 309 309 298 287 291 300 281 253 174 136 118 105 134 205 191 23 113 77 266 288 184 291 171 326 313 69 128 160 89 81 75 72 66 63 71 85
352 350 353 341 335 316 302 295 294 301 302 290 269 277 318 336 240 142 134 117 163 180 182 177 227 201 195 228 106 291 310 324 224 181 68 103 146 98 77 91 69 70 60 59 58
350 350 347 339 330 314 299 282 286 295 292 280 241 267 15 237 18 126 146 190 193 194 248 207 184 171 124 340 300 356 3 350 328 345 92 107 40 46 137 96 82 73 69 59 53
348 346 340 330 323 312 296 283 274 285 276 260 245 255 247 264 102 118 149 301 221 217 238 261 192 124 39 331 13 33 50 31 286 21 42 101 134 209 165 104 92 82 76 65 48
342 339 332 330 326 314 307 286 261 247 243 222 259 270 280 306 155 231 160 240 298 290 259 351 54 83 25 67 13 12 247 240 311 278 190 82 97 111 57 94 89 67 46 44 35
341 338 336 332 327 319 315 234 124 132 200 221 253 345 300 286 225 190 198 231 253 357 9 36 43 59 37 68 198 254 355 334 258 312 66 85 115 76 59 88 92 79 48 35 36
341 339 337 334 329 327 344 79 10 358 172 227 240 225 261 280 82 220 228 47 70 52 97 354 59 209 222 205 163 149 118 80 329 340 76 98 98 87 76 70 80 78 65 40 25
339 337 336 333 331 326 243 52 239 250 302 254 236 254 258 178 284 289 114 94 69 204 70 15 250 234 233 93 105 81 98 344 310 360 92 105 80 55 37 30 79 105 92 70 16
337 335 336 331 328 351 322 248 346 176 329 296 210 196 207 128 214 244 145 146 204 238 215 172 241 154 138 108 91 28 111 82 123 343 55 112 101 111 46 63 65 72 88 114 175
332 335 339 325 46 323 309 301 325 137 45 277 217 257 128 153 296 207 187 149 71 256 123 205 299 124 102 94 127 107 189 132 90 60 217 49 250 140 153 139 142 138 144 186 194
328 331 336 325 278 325 289 321 330 56 353 232 212 207 137 148 183 254 163 79 154 321 82 264 98 106 93 138 126 190 150 76 122 119 101 342 99 212 153 199 191 183 174 186 192
325 324 338 101 244 247 309 329 46 46 258 290 178 182 120 203 205 167 157 59 104 102 21 290 345 126 157 59 38 108 78 55 61 100 59 238 138 243 192 188 154 204 201 186 179
322 317 317 255 245 302 325 40 44 158 313 234 204 170 169 166 168 170 168 153 148 88 1 6 348 327 94 77 20 67 54 350 353 8 219 245 66 244 178 165 171 191 199 202 192
321 315 226 218 236 6 51 57 207 247 264 310 254 90 178 165 216 174 121 159 12 93 102 142 324 358 72 126 150 71 130 150 239 236 270 292 233 277 193 188 173 176 179 188 203
318 315 286 274 187 133 70 103 211 221 298 323 333 135 232 227 170 134 171 162 170 181 141 137 233 330 36 89 104 163 69 173 104 5 16 238 355 345 102 215 172 202 196 215 211
325 332 278 296 159 70 78 237 243 229 328 343 61 5 131 319 172 153 155 64 121 347 129 189 111 347 328 40 28 87 156 70 8 220 263 296 255 227 203 213 206 216 221 231 216
10 353 257 39 68 56 174 228 263 264 271 237 177 98 115 88 43 73 103 18 119 55 92 109 100 276 5 78 153 356 20 51 116 143 183 272 268 213 205 197 203 216 224 226 219
6 322 286 19 66 75 198 204 234 277 326 274 110 127 143 78 77 87 153 194 152 135 74 48 121 132 245 296 294 191 129 125 126 235 223 153 274 292 220 202 194 218 224 231 229
324 261 313 74 186 244 274 267 245 262 235 234 104 69 7 124 99 98 82 12 110 104 157 178 35 45 352 354 360 61 39 107 119 78 203 140 262 328 181 198 216 232 258 251 214
339 320 309 51 340 159 206 266 264 266 169 138 135 86 74 58 24 134 145 21 12 71 72 88 111 154 191 190 178 307 329 4 119 117 231 228 274 300 323 268 196 209 257 242 182
175 247 216 290 284 341 268 241 247 247 107 61 57 76 137 118 81 86 47 74 19 21 61 104 140 164 169 193 202 225 269 270 196 212 190 255 223 297 310 1 65 70 75 61 40
234 222 338 279 289 264 195 223 201 238 153 77 115 148 111 138 183 178 159 147 186 218 89 4 166 108 167 215 141 280 277 271 262 231 233 221 176 308 334 92 70 70 75 64 31
268 283 141 263 284 149 234 201 223 161 355 150 148 106 101 164 162 167 159 145 179 156 146 116 131 99 239 298 24 317 228 249 318 37 168 165 197 145 72 78 96 99 100 117 117